Probability
45 45 45 42 39 39 45 35 32 23 29 29 26 29 26 26 29 32 19 26 26 26 19 19 13 19 13 16 13 10 6 3 3 3 0 3 3 3 6 3 3 3 3
45 42 48 48 42 42 45 45 29 35 35 32 29 32 26 26 29 29 29 26 26 23 19 13 13 16 13 13 13 10 10 6 6 6 3 3 3 6 6 6 3 6 6
42 42 42 42 45 39 48 39 42 39 39 42 35 35 29 29 26 26 23 23 23 23 19 16 13 13 13 13 16 16 16 13 10 10 10 3 3 3 3 3 6 3 10
39 45 35 39 39 42 42 45 48 48 42 32 35 29 32 29 29 29 29 26 23 19 19 19 19 19 16 16 16 16 16 16 16 13 13 13 6 6 6 6 6 6 6
39 39 35 39 39 39 45 52 45 48 42 39 42 35 32 29 29 29 29 26 26 23 19 19 19 19 19 19 23 16 16 16 16 16 13 13 10 10 10 6 13 6 6
32 32 32 35 32 35 39 42 52 52 45 45 48 45 39 39 32 26 26 26 26 26 23 23 26 26 23 16 16 16 13 19 16 16 19 16 16 10 10 13 13 10 10
32 29 26 26 26 29 42 42 48 48 48 48 48 42 45 45 29 19 16 19 26 23 26 23 23 29 16 23 16 16 13 3 10 16 16 16 13 10 10 10 10 10 10
26 26 23 23 29 29 35 39 45 45 48 48 48 45 45 45 29 16 16 10 16 23 19 23 19 23 16 16 19 16 10 10 6 3 6 13 13 13 10 13 6 6 3
26 26 26 26 26 26 26 32 32 39 39 42 45 42 45 39 29 19 13 10 16 13 19 26 23 16 13 6 13 13 10 10 6 3 3 3 3 3 6 3 3 3 3
26 26 26 29 29 29 29 23 26 29 35 42 45 42 39 39 29 16 3 13 13 13 16 16 10 10 10 3 3 6 6 10 10 10 3 3 3 3 3 0 0 3 0
13 19 23 23 26 26 23 16 29 29 29 26 26 32 32 29 23 10 3 10 13 13 13 6 6 3 3 3 3 3 6 6 6 6 6 6 3 0 0 0 0 3 3
16 16 19 26 26 23 23 23 16 19 26 23 23 19 16 23 19 10 0 0 6 10 10 10 3 3 3 3 3 3 3 3 3 6 6 6 6 6 3 3 0 0 3
16 16 13 13 10 10 13 16 13 16 13 10 13 13 10 10 6 3 0 0 0 6 6 6 3 0 0 0 0 0 0 3 3 3 6 6 3 3 3 0 0 3 0
13 10 13 10 10 10 10 10 10 6 6 10 10 6 6 6 3 0 0 0 0 0 0 0 0 0 0 0 0 0 0 3 3 3 3 0 0 0 0 0 0 0 0
16 10 10 6 6 13 6 6 6 3 10 6 6 6 6 3 3 3 3 0 0 0 0 0 0 0 0 0 0 0 0 0 0 0 0 0 0 0 0 0 0 0 0
6 10 10 10 3 3 6 3 3 3 3 3 3 3 3 3 3 3 0 3 0 0 0 0 0 0 0 0 0 0 0 0 0 0 0 0 0 0 0 0 0 0 0
6 3 3 3 3 6 6 6 6 3 0 0 0 0 0 0 0 0 0 0 0 0 0 0 0 3 3 0 0 0 0 0 0 0 0 0 0 0 0 0 0 0 0
6 6 6 3 3 3 3 6 6 6 6 0 0 0 0 0 0 0 0 0 0 0 0 0 0 3 3 3 3 3 3 0 0 0 0 0 0 0 0 0 0 0 0
6 6 6 3 3 3 3 3 3 3 3 0 0 0 0 0 0 0 0 0 0 0 0 0 0 0 3 3 3 0 0 0 0 0 0 0 0 0 0 0 0 0 0
6 6 6 3 3 3 3 3 0 0 0 0 0 0 0 0 0 0 0 0 0 0 0 0 0 0 0 0 0 0 0 0 0 0 0 0 0 0 0 0 0 0 0
6 6 6 6 6 0 0 0 0 0 0 0 0 0 0 0 0 0 0 0 0 0 0 0 0 0 0 0 0 0 0 0 0 0 0 0 0 0 0 0 0 0 0
3 6 3 3 3 3 3 3 0 0 0 0 0 0 0 0 0 0 0 0 0 0 0 0 0 0 0 0 0 0 0 0 0 0 0 0 0 0 0 0 0 0 0
3 3 3 3 3 3 3 3 3 3 0 0 0 0 0 0 0 0 0 0 0 0 0 0 0 0 0 0 0 0 0 0 0 0 0 0 0 0 0 0 0 0 0
0 3 3 3 0 0 0 0 0 0 0 0 0 0 0 0 0 0 0 0 0 0 0 0 0 0 0 0 0 0 0 0 0 0 0 0 0 0 0 0 0 0 0
0 0 0 0 0 0 0 0 0 0 0 0 0 0 0 0 0 0 0 0 0 0 0 0 0 0 0 0 0 0 0 0 0 0 0 0 0 0 0 0 0 0 0
0 0 0 0 0 0 0 0 0 0 0 0 0 0 0 0 0 0 0 0 0 0 0 0 0 0 0 0 0 0 0 0 0 0 0 0 0 0 0 0 0 0 0
Height
5888 5888 5887 5887 5887 5886 5886 5885 5885 5884 5883 5882 5882 5880 5879 5878 5877 5876 5876 5875 5875 5874 5873 5872 5871 5870 5869 5868 5867 5866 5865 5864 5863 5862 5861 5859 5858 5857 5855 5854 5853 5853 5852
5886 5885 5885 5884 5883 5883 5882 5882 5881 5881 5880 5879 5878 5877 5876 5875 5874 5873 5872 5871 5871 5870 5869 5868 5867 5866 5864 5863 5862 5861 5860 5859 5858 5857 5856 5854 5853 5851 5850 5849 5848 5847 5846
5882 5881 5881 5880 5879 5878 5878 5878 5877 5877 5876 5875 5875 5874 5873 5871 5870 5869 5868 5867 5866 5865 5864 5863 5862 5861 5860 5858 5857 5856 5854 5853 5852 5851 5850 5848 5847 5846 5844 5843 5842 5841 5839
5878 5877 5877 5875 5874 5874 5873 5873 5873 5873 5872 5871 5870 5870 5869 5867 5866 5865 5863 5862 5861 5860 5859 5858 5856 5855 5854 5853 5851 5850 5848 5847 5846 5845 5844 5842 5841 5839 5838 5836 5835 5834 5832
5873 5873 5872 5871 5871 5870 5869 5869 5868 5868 5867 5866 5865 5864 5863 5862 5861 5860 5858 5857 5856 5854 5853 5852 5851 5849 5847 5846 5845 5843 5841 5840 5839 5838 5836 5835 5833 5832 5830 5828 5827 5826 5825
5868 5867 5867 5866 5866 5865 5864 5864 5863 5862 5861 5860 5859 5858 5857 5856 5855 5854 5853 5851 5850 5848 5847 5845 5844 5842 5841 5839 5837 5836 5834 5833 5831 5830 5829 5827 5826 5824 5822 5821 5819 5818 5817
5862 5861 5860 5860 5860 5859 5859 5858 5857 5856 5855 5854 5853 5852 5851 5850 5848 5847 5846 5845 5843 5842 5840 5838 5837 5835 5834 5832 5830 5828 5827 5825 5823 5822 5820 5819 5817 5816 5814 5813 5811 5810 5809
5855 5853 5853 5853 5853 5852 5852 5851 5850 5849 5848 5847 5846 5845 5843 5842 5841 5840 5839 5837 5836 5834 5832 5831 5829 5828 5826 5824 5823 5821 5819 5817 5815 5813 5812 5811 5809 5807 5805 5804 5802 5801 5800
5848 5847 5846 5845 5845 5845 5844 5844 5843 5842 5841 5839 5838 5837 5836 5835 5833 5832 5830 5829 5827 5826 5825 5823 5821 5819 5818 5816 5814 5813 5811 5809 5807 5805 5803 5802 5800 5798 5796 5794 5793 5791 5790
5840 5839 5838 5837 5837 5836 5836 5835 5835 5833 5832 5831 5830 5829 5827 5826 5825 5823 5822 5821 5819 5818 5816 5815 5813 5811 5809 5807 5805 5804 5802 5800 5798 5796 5794 5792 5790 5788 5786 5784 5783 5781 5780
5832 5831 5830 5829 5829 5828 5828 5827 5826 5825 5824 5822 5821 5820 5819 5817 5816 5814 5812 5811 5810 5808 5806 5805 5804 5802 5800 5798 5796 5794 5792 5791 5789 5787 5785 5783 5780 5778 5776 5774 5772 5770 5769
5823 5822 5822 5821 5820 5819 5819 5818 5817 5816 5815 5813 5812 5810 5809 5808 5806 5804 5802 5801 5799 5797 5796 5794 5793 5792 5790 5788 5786 5785 5783 5781 5778 5776 5774 5772 5770 5768 5766 5763 5761 5759 5758
5813 5812 5811 5811 5811 5810 5809 5808 5807 5806 5805 5803 5801 5800 5798 5797 5795 5793 5791 5789 5788 5787 5785 5784 5782 5781 5779 5777 5776 5774 5772 5770 5768 5766 5764 5762 5759 5757 5755 5753 5751 5749 5747
5804 5803 5803 5802 5802 5801 5800 5799 5797 5796 5795 5793 5791 5789 5787 5786 5784 5782 5780 5778 5777 5776 5775 5773 5771 5770 5768 5767 5765 5762 5760 5758 5756 5755 5753 5751 5748 5746 5744 5742 5740 5738 5736
5796 5795 5794 5794 5793 5792 5790 5789 5787 5785 5784 5783 5781 5779 5777 5775 5774 5771 5769 5767 5766 5765 5763 5761 5760 5759 5757 5755 5753 5750 5749 5747 5745 5743 5741 5739 5737 5735 5733 5730 5728 5726 5724
5787 5786 5786 5785 5784 5782 5780 5779 5778 5776 5774 5772 5770 5768 5766 5765 5763 5760 5758 5756 5755 5754 5752 5751 5749 5747 5746 5744 5742 5740 5737 5735 5733 5731 5729 5727 5725 5723 5721 5718 5716 5714 5712
5779 5778 5777 5776 5775 5773 5771 5770 5768 5766 5764 5762 5760 5758 5756 5753 5751 5749 5747 5745 5743 5742 5740 5739 5737 5736 5734 5733 5730 5728 5726 5724 5722 5720 5717 5715 5713 5711 5708 5706 5703 5701 5699
5770 5769 5768 5767 5765 5764 5762 5760 5758 5757 5755 5752 5750 5747 5745 5742 5740 5738 5736 5734 5731 5730 5728 5727 5725 5724 5722 5721 5719 5717 5715 5712 5710 5708 5706 5703 5701 5698 5696 5693 5691 5688 5686
5762 5761 5760 5758 5757 5755 5753 5751 5749 5747 5745 5743 5740 5738 5734 5731 5729 5727 5725 5723 5721 5719 5718 5716 5714 5712 5711 5709 5707 5705 5703 5701 5699 5696 5694 5691 5688 5686 5683 5680 5678 5675 5673
5754 5753 5752 5750 5748 5746 5744 5742 5740 5738 5736 5733 5731 5728 5725 5722 5720 5717 5714 5712 5711 5709 5707 5706 5704 5702 5700 5698 5696 5694 5691 5689 5687 5685 5682 5679 5676 5674 5671 5668 5666 5663 5661
5746 5745 5743 5741 5740 5738 5735 5733 5731 5729 5727 5725 5722 5719 5717 5713 5711 5708 5705 5703 5701 5699 5697 5695 5693 5691 5689 5687 5685 5682 5680 5678 5676 5673 5670 5667 5664 5662 5659 5656 5654 5651 5648
5738 5737 5735 5733 5731 5729 5727 5725 5724 5721 5719 5716 5713 5711 5708 5705 5702 5699 5696 5694 5691 5689 5687 5686 5683 5681 5679 5676 5674 5671 5669 5666 5664 5661 5658 5655 5652 5649 5647 5644 5641 5639 5636
5731 5729 5727 5725 5723 5721 5719 5717 5715 5713 5710 5707 5705 5702 5699 5696 5693 5690 5687 5685 5682 5680 5678 5675 5673 5670 5668 5665 5663 5660 5657 5654 5651 5648 5646 5643 5640 5637 5634 5631 5628 5625 5623
5723 5721 5720 5718 5715 5713 5711 5709 5707 5704 5702 5699 5696 5693 5690 5687 5685 5682 5679 5676 5673 5670 5668 5665 5662 5659 5656 5654 5651 5647 5644 5641 5638 5635 5633 5630 5627 5624 5621 5618 5615 5612 5610
5716 5714 5712 5710 5708 5706 5703 5701 5699 5696 5693 5691 5688 5685 5682 5679 5676 5672 5669 5666 5663 5660 5657 5654 5651 5648 5644 5641 5638 5635 5631 5628 5625 5622 5619 5616 5613 5610 5608 5605 5602 5599 5597
5710 5708 5705 5703 5701 5698 5696 5693 5691 5688 5685 5682 5680 5677 5673 5670 5667 5663 5660 5656 5653 5649 5646 5643 5639 5636 5632 5629 5625 5622 5618 5615 5611 5608 5605 5602 5599 5597 5594 5591 5589 5586 5584
Wind_Speed
7 8 8 8 8 8 8 8 8 8 8 9 9 10 10 10 10 10 11 11 11 11 11 11 12 13 13 14 15 15 16 16 16 16 17 17 17 17 17 18 19 19 18
9 10 10 10 10 10 10 9 9 10 10 11 11 11 11 12 12 12 12 13 13 13 13 13 14 15 15 16 16 17 17 18 18 18 18 19 19 20 20 20 20 20 21
12 12 12 12 12 12 12 11 11 12 12 13 13 12 12 13 13 14 14 15 15 15 15 16 17 17 17 18 18 18 19 19 19 19 20 20 20 21 21 22 22 22 23
14 14 14 14 15 15 14 14 13 14 14 15 14 14 14 14 15 16 16 17 17 17 17 17 18 19 19 20 20 21 21 21 22 22 22 22 22 23 23 23 24 24 24
16 16 16 16 16 15 15 16 16 16 16 17 17 17 17 17 17 18 18 19 19 19 19 19 20 20 21 22 22 22 23 23 24 24 24 24 24 24 25 25 25 25 25
18 18 18 18 17 17 18 19 18 18 18 19 19 19 20 20 20 20 20 20 21 21 21 22 22 23 23 23 24 24 24 24 24 25 25 25 25 25 26 26 27 27 26
21 20 19 20 20 20 20 19 19 20 20 21 22 22 23 23 22 21 22 22 23 23 23 23 24 25 25 26 25 25 25 26 26 27 27 26 27 27 27 27 27 27 28
22 22 22 21 22 22 21 21 21 22 23 24 24 24 25 24 24 24 24 25 26 26 25 25 25 26 27 27 27 27 27 27 27 28 28 29 29 29 29 29 29 29 29
24 24 24 23 23 23 24 24 23 24 25 25 26 25 25 25 26 26 27 27 27 27 26 26 27 27 28 28 28 28 28 29 29 29 30 31 31 31 32 31 31 31 31
26 26 25 25 25 26 26 26 26 26 27 27 27 27 27 27 28 29 29 29 29 29 29 28 29 29 29 29 30 30 29 30 31 31 31 31 31 32 33 33 33 33 33
28 26 26 26 27 27 27 28 28 28 28 28 28 29 30 30 30 31 31 32 31 30 31 31 32 32 32 32 31 31 31 31 32 33 33 33 33 33 34 35 35 35 35
28 28 28 28 28 29 29 30 30 30 29 29 30 31 32 32 33 34 34 33 33 32 33 33 33 33 33 33 33 32 32 33 33 33 34 34 34 35 36 36 37 37 36
29 28 28 29 29 30 30 30 31 31 32 32 32 33 33 34 35 36 35 34 34 33 33 33 34 34 34 34 34 34 34 34 34 34 34 35 35 36 37 37 37 37 37
28 28 28 29 29 30 31 31 32 33 33 34 34 35 35 35 35 36 37 35 35 35 35 35 34 34 34 35 36 36 35 35 35 35 36 36 36 36 36 36 36 36 36
27 27 26 28 29 30 31 32 33 32 33 34 35 36 36 36 36 36 37 35 35 36 36 35 35 34 34 35 35 35 35 35 35 36 36 36 37 37 37 37 37 37 37
27 28 28 28 29 30 31 32 33 33 33 34 35 36 36 36 36 37 36 36 36 37 36 36 34 34 35 35 35 35 36 36 36 37 37 38 38 38 38 39 39 39 38
28 28 29 29 30 30 30 31 32 33 33 34 35 36 36 36 37 36 36 36 37 38 37 36 35 35 35 36 36 36 37 37 37 38 38 38 39 39 39 40 40 40 39
26 27 28 29 29 30 31 31 32 33 33 33 34 34 34 35 36 37 38 36 36 37 36 36 36 35 35 36 36 36 36 36 37 38 38 39 39 39 39 39 39 39 39
25 26 27 27 29 30 32 32 32 32 32 32 32 33 33 34 34 34 34 34 34 35 35 35 36 35 35 35 35 36 36 37 37 37 38 38 38 38 38 38 39 39 39
25 26 27 28 28 29 30 30 30 31 31 31 31 31 31 32 32 32 32 34 34 35 36 35 34 34 34 35 36 37 37 36 37 37 38 37 38 38 39 39 39 38 38
25 26 27 27 28 28 28 28 28 29 29 30 30 31 31 31 31 31 31 32 33 34 33 33 33 33 34 35 35 36 36 36 37 37 37 37 37 38 38 39 39 39 39
24 25 26 26 27 27 27 27 27 28 28 28 29 29 30 30 30 30 30 30 31 31 31 32 32 33 34 35 35 35 36 37 37 38 38 39 39 38 39 39 39 39 39
23 24 24 26 27 27 27 27 28 28 29 29 29 29 30 30 30 30 30 30 30 31 32 33 33 34 35 36 36 37 37 37 38 38 39 39 39 39 39 39 39 38 38
23 24 24 25 26 27 27 27 27 27 28 28 29 29 29 30 30 30 30 30 31 32 33 33 34 35 36 37 37 38 39 39 39 39 39 40 40 40 39 39 39 39 39
23 23 24 24 25 26 26 26 27 27 27 28 28 29 30 31 31 30 31 32 33 34 35 35 36 37 37 37 38 39 40 40 40 40 40 41 41 40 40 40 40 40 39
22 22 23 23 24 25 25 26 27 27 28 29 29 30 30 31 31 32 33 34 34 34 35 35 36 37 38 38 39 39 40 40 40 40 40 40 40 40 40 40 39 39 39
Wind_Direction
276 278 280 285 288 286 287 288 287 289 295 298 300 297 294 293 288 285 287 288 287 286 287 286 287 288 288 287 286 286 285 284 282 280 278 277 277 279 279 277 275 276 275
279 283 281 282 280 278 279 283 283 284 288 292 294 293 290 287 286 286 285 284 285 286 285 286 286 287 288 287 286 285 284 284 283 282 281 279 277 277 277 278 277 276 276
282 283 279 275 273 272 273 277 279 280 281 285 289 289 288 287 287 285 286 285 284 285 285 284 284 285 286 287 287 286 284 283 283 283 283 281 278 277 277 276 276 275 276
281 279 279 274 275 273 272 274 277 280 281 280 281 283 284 285 286 286 285 284 284 285 286 285 283 283 283 283 284 283 282 281 282 282 283 283 281 279 278 277 275 275 276
277 277 279 280 281 278 277 277 279 281 282 280 280 282 281 281 282 282 282 282 284 284 285 286 285 285 283 282 281 281 281 281 281 281 282 281 281 280 278 278 278 276 276
276 277 279 280 282 282 281 281 279 279 280 279 280 281 280 279 278 279 281 281 281 281 284 286 286 286 285 284 282 281 281 282 283 282 281 281 281 280 278 278 278 277 275
275 276 277 278 281 281 280 281 280 280 279 279 279 279 279 278 278 280 281 279 280 280 282 283 283 283 285 286 287 284 284 283 282 282 281 282 281 280 279 279 279 277 277
274 273 274 275 277 279 278 278 279 280 278 277 278 279 277 277 278 278 279 280 280 280 280 280 281 281 283 284 286 286 285 284 283 282 281 280 281 280 280 280 281 281 279
274 274 275 274 275 275 277 278 277 277 278 278 277 277 277 277 277 278 278 278 279 280 281 281 283 284 282 283 284 284 284 284 283 282 281 280 280 281 281 281 280 280 280
273 272 271 271 272 273 275 276 277 277 276 277 276 276 277 277 276 277 278 276 277 279 280 282 283 284 284 283 284 284 284 284 284 283 283 282 281 280 280 280 281 281 281
273 274 273 272 273 275 277 277 277 276 276 276 276 276 276 276 276 276 277 277 276 277 278 280 280 282 283 282 283 284 284 283 283 283 281 281 281 280 280 281 282 282 282
274 273 274 274 275 276 278 278 277 276 276 276 276 276 277 277 277 277 276 275 274 274 276 277 277 280 280 280 282 283 284 284 283 283 282 281 280 280 280 281 283 283 282
275 273 275 277 277 277 277 277 277 277 277 276 276 276 276 278 278 277 275 274 273 275 276 277 277 278 277 279 281 282 282 282 282 282 282 282 281 281 280 281 282 282 281
277 276 275 277 277 277 276 277 278 278 278 277 276 276 277 278 278 279 278 274 273 275 276 277 277 276 277 279 280 280 280 281 281 282 282 282 282 282 282 282 282 281 281
276 277 276 275 276 276 277 278 280 282 280 279 280 279 278 278 279 278 279 277 277 277 276 276 277 278 279 279 280 280 280 281 281 282 283 283 282 282 282 282 282 282 282
274 275 276 277 278 278 279 280 281 282 283 283 283 284 281 280 279 279 279 278 277 278 276 276 278 279 279 279 279 279 279 280 280 281 281 282 282 282 282 282 282 282 282
276 276 276 278 280 280 280 281 282 283 284 285 285 284 284 284 280 278 277 277 277 278 278 277 279 279 280 280 280 280 279 279 279 280 281 281 282 283 283 284 283 283 282
276 277 278 280 282 282 282 282 282 283 284 286 286 284 284 283 282 280 278 276 277 277 277 277 278 279 280 280 279 280 280 280 281 282 283 283 284 284 284 284 284 283 282
276 277 279 282 284 284 284 284 284 284 284 285 287 286 287 287 286 283 279 276 279 278 277 277 277 277 279 280 280 280 281 282 283 283 285 285 284 284 285 285 285 285 283
279 280 280 283 285 287 288 287 286 285 285 286 288 289 289 287 286 286 284 282 280 279 278 278 280 281 282 282 281 282 283 284 284 285 286 286 285 283 284 285 286 286 284
282 283 284 284 286 289 290 290 289 290 291 291 292 291 289 289 289 288 287 284 282 281 281 281 282 282 284 285 284 284 285 284 285 286 286 286 285 284 284 285 285 285 284
283 284 285 286 288 290 290 291 292 293 294 294 294 293 292 293 293 293 291 288 288 288 286 285 285 286 286 287 287 287 287 286 285 286 287 286 285 286 286 286 285 285 284
285 287 288 289 290 290 291 292 293 294 295 295 294 293 293 294 294 294 293 292 293 293 291 288 287 287 287 287 286 287 288 287 287 287 287 287 286 287 287 287 286 285 285
288 289 291 293 293 292 292 294 294 295 296 297 298 297 297 296 296 296 295 295 294 293 292 292 291 290 289 289 288 287 288 288 287 287 287 286 286 286 286 286 286 285 285
292 292 293 295 297 296 296 296 297 298 299 300 300 299 298 298 297 297 298 297 295 294 293 292 292 291 291 290 289 288 288 288 287 287 287 286 285 285 285 286 285 285 284
296 296 296 297 298 298 298 299 300 300 300 300 299 298 298 297 297 298 298 298 296 295 295 294 292 291 291 291 290 290 289 289 288 287 286 285 285 284 284 285 285 285 284